Kuchera_Ratio
0.0 0.0 0.0 0.0 0.0 0.0 0.0 0.0 3.6 0.0 0.0 0.0 0.0 0.0 0.0 0.0 0.0 0.0 0.0 0.0 0.0 0.0 0.0 0.0 0.0 0.0 0.0 0.0 0.0 0.0 0.0 0.0 0.0 0.0 0.0 0.0 0.0 0.0 0.0 0.0 0.0 0.1 0.7 0.5
0.0 0.0 0.0 0.0 0.0 0.0 0.0 0.0 0.0 0.0 0.0 0.0 0.0 0.0 0.0 0.0 0.0 0.0 0.0 0.0 0.0 0.0 0.0 0.0 0.0 0.0 0.0 0.0 0.0 0.0 0.0 0.0 0.0 0.0 0.0 0.0 0.0 0.0 0.0 0.7 0.5 0.0 4.7 4.6
1.1 0.0 0.0 2.0 0.0 0.0 0.0 0.0 0.0 0.0 0.0 0.0 0.0 0.0 0.0 0.0 0.0 0.0 0.0 0.0 0.0 0.0 0.0 0.0 0.0 0.0 0.0 0.0 0.0 0.0 0.0 0.0 0.0 0.0 0.0 0.0 0.1 0.5 1.2 2.8 0.7 5.3 5.3 3.9
1.2 0.0 9.9 0.0 0.0 0.0 0.0 0.0 0.0 0.0 0.0 0.0 0.0 0.0 0.0 0.0 0.0 0.0 0.0 0.0 0.0 0.0 0.0 0.0 0.0 0.0 0.0 0.0 0.0 0.0 0.0 0.0 0.0 0.0 0.0 1.1 2.2 3.5 5.0 7.0 4.3 4.5 6.9 7.1
2.8 5.2 2.3 0.0 0.0 0.0 0.0 0.0 0.0 0.0 0.0 0.0 0.0 0.0 0.0 0.0 0.0 0.0 0.0 0.0 0.0 0.0 0.0 0.0 0.0 0.0 0.0 0.0 0.0 0.0 0.0 0.0 0.0 0.7 2.1 3.0 4.5 4.1 3.3 4.3 5.1 8.1 7.9 8.9
5.3 5.8 10.9 0.0 0.0 0.0 0.0 0.0 0.0 0.0 0.0 0.0 0.0 4.6 0.0 0.0 0.0 0.0 0.0 0.0 0.0 0.0 0.0 0.0 0.0 0.0 0.0 0.0 0.0 0.0 0.0 0.0 0.9 2.5 3.4 4.2 5.7 6.5 3.5 4.1 8.7 9.3 9.5 11.3
6.9 6.8 2.1 0.0 0.0 0.0 2.9 0.0 0.0 0.0 0.0 0.0 0.0 0.0 0.0 0.0 0.0 0.0 0.0 0.0 0.0 0.0 0.0 0.0 0.0 0.0 0.0 0.0 0.5 0.0 0.0 1.4 3.2 4.1 5.3 5.3 4.5 2.9 4.7 8.9 9.9 10.3 11.6 12.8
7.0 8.7 7.1 0.0 0.0 0.0 0.0 0.0 0.0 0.0 0.0 0.0 0.0 0.0 0.0 0.0 0.0 0.0 0.0 0.0 0.0 0.0 0.0 0.0 0.0 0.0 0.0 1.4 0.0 0.3 1.6 4.0 5.6 6.5 6.7 5.9 4.5 5.9 10.0 10.4 11.1 11.9 12.4 13.1
0.0 0.0 0.0 0.0 0.0 0.0 0.0 0.0 0.0 0.0 0.0 0.0 0.0 0.0 0.0 0.0 0.0 0.0 0.0 0.0 0.0 0.0 0.0 0.0 0.0 0.0 2.0 1.3 1.5 2.3 4.3 6.2 7.7 8.1 8.3 8.5 6.5 7.9 9.9 10.8 11.2 12.4 13.7 14.5
0.0 0.0 0.0 0.0 0.0 0.0 0.0 0.0 0.0 0.0 0.0 0.0 0.0 0.0 0.0 0.0 0.0 0.0 0.0 0.0 0.0 0.7 1.8 2.5 0.2 1.1 2.2 2.6 3.2 3.8 4.8 6.5 5.7 8.9 9.7 10.1 6.5 7.7 11.5 11.5 12.6 13.5 14.3 14.8
0.0 0.0 0.0 0.0 0.0 0.0 0.0 0.0 0.0 0.0 0.0 0.0 0.0 0.0 0.0 0.0 0.0 0.1 0.4 0.9 1.2 3.1 4.1 4.5 3.8 4.4 4.7 4.9 5.9 6.9 7.1 5.5 7.7 10.7 10.8 11.5 9.7 11.9 12.0 12.2 12.6 13.2 13.2 13.8
0.0 0.0 0.0 0.0 0.0 0.0 0.0 0.0 0.0 0.0 0.0 0.0 0.0 0.0 0.0 0.0 0.3 1.1 2.3 2.5 3.7 4.4 5.1 5.9 6.5 7.4 7.1 4.9 4.3 6.7 10.3 8.1 9.1 10.8 10.8 11.6 11.9 12.1 7.9 10.3 8.1 7.1 7.5 13.0
0.0 0.0 0.0 0.0 0.0 0.0 0.0 0.0 0.0 0.0 0.0 0.0 0.0 0.0 0.0 0.7 1.5 2.2 3.5 4.5 5.7 6.5 7.0 7.7 8.5 8.6 7.4 7.3 6.9 7.5 8.9 8.3 9.5 11.2 12.0 12.2 12.4 12.4 13.7 11.3 8.9 8.9 8.1 7.9
0.0 0.0 0.0 0.0 0.0 0.0 0.0 0.0 0.0 0.0 0.0 0.0 0.0 0.0 0.4 1.8 3.1 4.1 5.1 5.9 6.2 7.5 8.3 8.2 8.6 8.0 6.1 5.7 6.3 8.5 8.9 10.3 11.3 11.5 11.5 11.2 11.3 12.2 12.7 13.9 14.3 13.2 12.9 10.9
0.0 0.0 0.0 0.0 0.0 0.0 0.0 0.0 0.0 0.0 0.0 1.1 0.6 1.4 2.2 3.9 4.8 5.5 5.9 6.7 7.7 9.0 8.9 8.8 9.9 8.9 5.9 5.9 7.1 7.9 8.7 10.2 10.3 9.8 12.1 11.5 11.7 11.8 12.3 12.7 13.7 13.4 13.5 13.5
0.0 0.0 0.0 0.0 0.0 0.0 0.0 0.0 1.1 1.3 0.9 1.7 2.5 2.8 3.3 4.8 5.6 6.1 6.4 7.4 10.1 11.3 10.6 10.7 10.5 7.4 6.3 5.9 6.5 7.1 8.5 10.7 11.2 11.6 11.7 11.3 11.6 12.1 13.0 13.2 13.9 13.3 13.7 13.6
0.0 0.9 0.0 0.1 0.0 0.1 0.9 0.0 0.0 0.4 1.5 2.3 2.8 3.3 4.3 5.7 6.3 6.4 6.7 7.7 8.9 9.9 9.3 9.3 9.7 7.4 6.5 6.1 6.7 7.3 9.7 10.3 10.9 12.1 12.5 12.2 12.7 12.9 13.1 14.1 14.0 13.7 13.5 12.8
0.0 0.0 0.0 2.1 5.1 2.9 2.0 0.2 1.1 1.6 2.7 2.9 3.6 4.1 4.9 6.5 7.3 7.2 7.2 8.1 9.4 9.8 8.8 6.5 6.8 8.6 7.7 6.5 6.9 8.5 11.2 12.1 11.7 12.3 12.3 12.8 12.5 12.6 13.3 13.8 13.8 14.1 13.1 12.7
0.0 0.5 0.3 0.3 0.0 0.8 1.8 2.4 2.6 2.7 3.2 4.0 4.5 5.0 6.3 6.8 7.4 7.7 8.0 9.4 10.3 11.4 8.6 6.6 7.9 9.2 9.1 7.5 8.5 10.1 11.7 12.6 12.6 12.5 12.5 12.6 12.7 12.7 13.7 14.1 14.0 13.6 13.7 13.6
0.0 0.0 0.0 0.7 0.7 0.9 1.2 1.9 2.0 2.9 3.1 4.7 5.7 6.8 7.7 6.3 6.7 8.4 9.0 10.7 9.0 9.4 8.2 8.2 8.5 11.5 9.1 8.5 9.1 10.3 12.3 13.1 13.4 13.1 12.8 12.9 13.4 14.0 13.7 13.6 13.6 13.8 13.4 14.1
2.4 1.7 1.9 0.7 1.1 1.1 1.7 2.9 3.7 3.5 3.2 4.4 7.0 7.3 7.5 7.3 7.6 8.5 9.7 10.5 7.6 7.2 7.8 8.6 8.6 8.7 8.1 8.5 8.3 10.3 12.5 13.0 13.4 13.4 13.6 13.6 13.7 14.1 14.3 14.1 13.6 13.3 13.1 13.3
2.6 2.7 2.7 2.8 3.3 3.1 2.4 3.2 3.6 3.7 4.2 4.4 4.3 6.2 7.2 7.4 7.1 7.8 8.5 10.4 7.8 7.6 8.9 10.0 10.6 9.3 7.9 7.9 8.1 8.9 10.5 12.4 12.9 13.0 13.2 13.2 13.7 14.2 14.3 14.3 14.2 13.7 13.0 12.9
3.3 3.7 3.7 3.4 3.9 4.3 3.0 1.8 2.0 3.3 4.0 4.1 4.9 5.7 6.9 7.5 8.1 9.5 10.3 8.3 8.0 8.5 10.5 9.7 12.0 10.1 8.5 7.5 7.7 8.1 9.1 9.9 11.9 12.3 13.3 13.6 13.8 13.9 14.4 14.5 14.2 14.1 13.3 13.2
2.7 2.7 2.9 2.9 3.4 4.1 4.9 1.9 2.6 3.0 3.7 4.4 5.1 5.5 6.8 7.6 7.4 8.4 10.5 10.1 9.1 10.6 12.1 8.9 8.5 7.7 7.9 10.5 8.9 8.5 9.3 9.7 10.3 12.3 12.7 13.2 13.0 13.9 14.1 13.7 13.9 13.7 13.2 13.2
3.4 3.8 4.0 4.5 5.3 4.7 4.5 4.4 6.3 6.2 4.9 5.5 6.1 6.7 7.1 8.0 10.0 8.0 9.3 9.8 11.3 12.2 12.5 13.1 13.2 13.6 11.1 9.1 8.5 8.7 8.9 9.1 9.9 10.9 11.7 12.3 12.8 13.2 13.2 12.7 13.1 14.0 13.4 13.4
7.3 8.5 8.7 8.4 9.6 9.6 9.7 10.0 11.7 10.3 11.5 11.0 10.9 9.4 7.9 7.3 8.5 9.9 10.5 11.3 12.8 13.9 14.3 14.5 15.4 14.6 16.2 16.1 16.0 15.4 13.6 10.9 8.5 9.1 10.3 10.3 10.5 12.2 12.2 12.2 12.8 14.0 13.8 14.0
10.3 11.5 11.6 10.8 9.5 10.1 11.1 12.1 12.2 11.5 8.5 7.9 8.9 8.3 8.1 8.3 10.7 11.3 12.2 14.2 14.7 15.5 15.7 16.6 17.2 17.9 17.4 17.1 17.0 17.0 16.3 15.5 14.4 12.2 9.1 9.9 11.1 11.3 11.5 12.1 13.2 14.0 14.1 15.0